�N����,����,�~����,�C��,���x,�C��,����,���ϕ���,�ő�u�ԕ���,�ő厞����,���˗�,�I�_���x,�n�����x,�ő啗���N��,DTYPE
"19/07/16","00:10",0.0,21.5,87.8,1004.1,327.1,3.0,4.8,338.2,0.00,19.4,23.5,"00:09:48",1
"19/07/16","00:20",0.0,21.3,87.9,1003.6,328.7,2.8,4.1,334.6,0.00,19.3,23.3,"00:15:12",1
"19/07/16","00:30",0.0,21.3,88.0,1004.1,332.1,2.5,3.7,324.0,0.00,19.3,23.3,"00:23:52",1
"19/07/16","00:40",0.0,21.2,88.2,1003.6,332.1,2.2,4.1,333.6,0.00,19.2,23.3,"00:31:28",1
"19/07/16","00:50",0.0,21.1,88.4,1003.6,334.5,2.5,4.2,335.5,0.00,19.1,23.0,"00:43:28",1
"19/07/16","01:00",0.0,21.1,88.6,1003.8,332.8,2.3,3.9,334.1,0.00,19.2,23.1,"00:52:16",1
"19/07/16","01:10",0.0,21.0,88.8,1003.6,329.7,2.3,4.1,326.4,0.00,19.1,22.8,"01:04:48",1
"19/07/16","01:20",0.0,21.0,88.8,1003.8,328.9,3.0,4.8,336.6,0.00,19.1,23.0,"01:11:04",1
"19/07/16","01:30",0.0,20.9,88.8,1003.6,329.9,2.6,3.9,329.8,0.00,19.0,23.1,"01:20:40",1
"19/07/16","01:40",0.0,20.9,89.1,1003.6,328.4,2.6,3.9,335.9,0.00,19.1,22.9,"01:37:36",1
"19/07/16","01:50",0.0,20.8,89.3,1003.4,331.7,2.3,3.9,333.6,0.00,19.0,22.9,"01:42:24",1
"19/07/16","02:00",0.0,20.8,89.5,1003.4,330.4,2.1,4.1,333.9,0.00,19.1,22.7,"01:59:52",1
"19/07/16","02:10",0.0,20.7,89.7,1003.8,334.2,2.0,3.7,335.3,0.00,19.0,22.7,"02:02:08",1
"19/07/16","02:20",0.0,20.6,89.8,1003.8,331.2,2.2,4.0,331.9,0.00,18.9,22.7,"02:16:56",1
"19/07/16","02:30",0.0,20.7,90.0,1003.8,327.1,2.3,4.3,338.5,0.00,19.0,22.9,"02:23:20",1
"19/07/16","02:40",0.0,20.6,90.0,1004.1,333.3,2.6,4.5,337.1,0.00,18.9,22.7,"02:34:56",1
"19/07/16","02:50",0.0,20.6,90.2,1004.1,334.4,2.5,4.0,339.7,0.00,19.0,22.7,"02:48:00",1
"19/07/16","03:00",0.0,20.5,90.5,1003.8,334.0,2.3,3.5,342.5,0.00,18.9,22.7,"02:50:16",1
"19/07/16","03:10",0.0,20.4,90.7,1004.1,334.8,2.2,3.3,338.1,0.00,18.9,22.6,"03:05:44",1
"19/07/16","03:20",0.0,20.4,90.9,1004.1,332.3,2.1,3.4,325.0,0.00,18.9,22.7,"03:15:28",1
"19/07/16","03:30",0.0,20.4,90.9,1004.1,330.4,3.0,4.7,333.2,0.00,18.9,22.6,"03:22:56",1
"19/07/16","03:40",0.0,20.3,91.0,1004.1,331.5,2.6,4.3,331.0,0.00,18.8,22.5,"03:32:24",1
"19/07/16","03:50",0.0,20.3,91.2,1004.1,333.9,2.7,4.5,337.2,0.00,18.9,22.6,"03:44:56",1
"19/07/16","04:00",0.0,20.3,91.3,1004.3,334.7,3.5,5.1,334.7,0.00,18.9,22.4,"03:57:44",1
"19/07/16","04:10",0.0,20.3,91.3,1004.3,332.2,2.8,5.2,338.8,0.00,18.9,22.4,"04:00:02",1
"19/07/16","04:20",0.0,20.3,91.4,1004.3,328.9,2.8,4.2,333.3,0.00,18.9,22.3,"04:17:20",1
"19/07/16","04:30",0.0,20.3,91.5,1004.8,331.5,2.6,4.2,341.5,0.00,18.9,22.3,"04:28:32",1
"19/07/16","04:40",0.0,20.4,91.3,1004.5,333.6,2.7,4.5,336.4,0.00,19.0,22.4,"04:35:52",1
"19/07/16","04:50",0.0,20.3,91.4,1005.0,332.2,3.1,5.2,340.2,0.00,18.9,22.4,"04:47:52",1
"19/07/16","05:00",0.0,20.3,91.4,1004.8,333.7,3.6,7.0,339.8,0.00,18.9,22.3,"04:59:12",1
"19/07/16","05:10",0.0,20.4,91.3,1004.8,331.7,3.1,5.2,336.4,0.00,19.0,22.3,"05:07:12",1
"19/07/16","05:20",0.0,20.4,91.3,1004.8,329.7,2.8,4.8,321.3,0.00,19.0,22.2,"05:12:24",1
"19/07/16","05:30",0.0,20.4,91.3,1005.0,315.8,2.1,3.7,332.5,0.00,19.0,22.2,"05:20:08",1
"19/07/16","05:40",0.0,20.5,91.3,1005.2,322.9,2.3,4.1,331.2,0.00,19.1,22.4,"05:32:32",1
"19/07/16","05:50",0.0,20.5,91.2,1005.0,328.1,3.1,5.5,334.0,0.00,19.1,22.3,"05:42:56",1
"19/07/16","06:00",0.0,20.5,91.2,1005.2,324.5,2.8,5.5,331.3,0.00,19.1,22.2,"05:57:52",1
"19/07/16","06:10",0.0,20.5,91.2,1005.5,326.1,2.8,5.5,336.9,0.00,19.1,22.1,"06:03:44",1
"19/07/16","06:20",0.0,20.5,91.1,1005.2,326.4,3.1,5.0,321.4,0.00,19.0,22.3,"06:17:36",1
"19/07/16","06:30",0.0,20.5,91.1,1005.2,330.2,3.2,6.0,327.5,0.00,19.0,22.3,"06:24:24",1
"19/07/16","06:40",0.0,20.5,91.2,1005.2,334.1,3.4,5.1,339.3,0.01,19.1,22.3,"06:35:44",1
"19/07/16","06:50",0.0,20.6,91.2,1005.2,332.3,3.0,4.8,334.1,0.03,19.2,22.1,"06:40:32",1
"19/07/16","07:00",0.0,20.9,91.2,1005.2,331.2,2.7,5.1,333.1,0.05,19.5,22.2,"06:58:00",1
"19/07/16","07:10",0.0,21.2,90.7,1005.7,328.9,3.0,5.4,337.5,0.06,19.7,22.3,"07:02:16",1
"19/07/16","07:20",0.0,21.4,90.0,1006.0,329.3,2.7,4.7,338.3,0.07,19.7,22.2,"07:18:48",1
"19/07/16","07:30",0.0,21.5,89.4,1005.5,329.8,2.8,4.4,338.3,0.06,19.7,22.4,"07:26:16",1
"19/07/16","07:40",0.0,21.7,89.2,1005.7,324.7,2.5,4.8,347.7,0.09,19.9,22.4,"07:37:52",1
"19/07/16","07:50",0.0,22.0,87.8,1005.7,325.1,2.5,5.6,334.5,0.09,19.9,22.6,"07:43:04",1
"19/07/16","08:00",0.0,22.3,87.6,1006.0,332.7,2.3,4.2,343.8,0.11,20.2,22.4,"07:54:56",1
"19/07/16","08:10",0.0,22.6,87.1,1005.5,338.0,2.6,4.9,346.9,0.16,20.4,22.8,"08:07:28",1
"19/07/16","08:20",0.0,23.1,86.1,1005.5,332.2,2.2,3.4,338.9,0.14,20.7,22.7,"08:10:40",1
"19/07/16","08:30",0.0,23.6,84.2,1005.5,316.3,1.7,3.2,351.0,0.22,20.8,22.6,"08:23:52",1
"19/07/16","08:40",0.0,23.7,83.5,1005.0,304.3,1.3,2.7,346.3,0.16,20.8,23.0,"08:35:36",1
"19/07/16","08:50",0.0,24.4,81.7,1005.2,285.9,1.0,3.1,330.7,0.22,21.1,23.2,"08:40:02",1
"19/07/16","09:00",0.0,24.6,82.4,1005.2,301.1,1.1,2.6,345.6,0.22,21.4,23.2,"08:55:28",1
"19/07/16","09:10",0.0,24.6,81.8,1005.0,317.2,1.5,4.0,340.1,0.25,21.3,23.6,"09:08:24",1
"19/07/16","09:20",0.0,24.8,80.2,1004.8,311.3,1.3,3.2,335.6,0.26,21.2,23.7,"09:19:52",1
"19/07/16","09:30",0.0,25.3,80.2,1004.5,339.6,1.0,2.6,340.1,0.24,21.7,23.8,"09:21:36",1
"19/07/16","09:40",0.0,25.9,78.3,1004.3,303.7,0.3,1.2,234.8,0.32,21.9,23.9,"09:37:04",1
"19/07/16","09:50",0.0,26.0,77.0,1004.3,345.6,0.7,1.8,1.3,0.29,21.7,24.2,"09:49:28",1
"19/07/16","10:00",0.0,26.5,75.5,1004.8,127.7,1.0,2.0,125.4,0.45,21.9,24.6,"09:59:04",1
"19/07/16","10:10",0.0,27.1,76.5,1005.2,164.8,1.1,1.9,140.1,0.39,22.7,24.7,"10:00:02",1
"19/07/16","10:20",0.0,27.0,74.7,1005.5,130.4,0.7,2.1,123.8,0.37,22.2,25.0,"10:10:32",1
"19/07/16","10:30",0.0,27.4,75.4,1005.7,103.5,0.8,3.2,101.0,0.33,22.7,25.1,"10:28:48",1
"19/07/16","10:40",0.0,27.6,73.8,1006.2,137.1,0.8,2.4,112.5,0.46,22.5,25.6,"10:35:44",1
"19/07/16","10:50",0.0,27.4,73.0,1006.0,174.6,1.1,2.6,199.1,0.45,22.2,25.7,"10:42:00",1
"19/07/16","11:00",0.0,27.4,71.7,1006.0,212.4,0.8,3.5,242.3,0.29,21.9,25.9,"10:51:28",1
"19/07/16","11:10",0.0,27.8,70.0,1005.7,162.3,1.0,2.7,119.4,0.48,21.9,26.2,"11:08:24",1
"19/07/16","11:20",0.0,28.6,68.3,1005.7,24.3,0.8,2.2,346.1,0.44,22.2,26.3,"11:19:04",1
"19/07/16","11:30",0.0,28.6,67.2,1006.0,12.7,1.0,2.2,348.2,0.49,22.0,26.6,"11:21:36",1
"19/07/16","11:40",0.0,28.9,67.2,1005.7,160.6,0.8,2.1,19.3,0.58,22.2,26.9,"11:30:48",1
"19/07/16","11:50",0.0,29.3,66.0,1005.7,167.1,0.6,1.7,352.3,0.55,22.3,27.2,"11:40:02",1
"19/07/16","12:00",0.0,29.2,65.7,1006.0,339.0,0.8,2.9,343.0,0.47,22.2,27.4,"11:54:00",1
"19/07/16","12:10",0.0,29.8,64.7,1005.7,71.9,0.6,1.7,6.3,0.60,22.5,27.5,"12:05:20",1
"19/07/16","12:20",0.0,29.8,62.5,1006.0,140.5,1.0,2.6,176.8,0.60,21.9,27.8,"12:18:56",1
"19/07/16","12:30",0.0,30.4,65.9,1006.2,199.2,1.2,2.2,192.0,0.63,23.3,28.3,"12:29:36",1
"19/07/16","12:40",0.0,30.7,60.7,1006.0,348.1,1.2,2.9,351.2,0.64,22.3,28.4,"12:32:32",1
"19/07/16","12:50",0.0,30.1,61.5,1006.0,91.2,0.8,2.4,97.5,0.45,21.9,28.6,"12:47:44",1
"19/07/16","13:00",0.0,29.6,62.7,1005.5,142.3,1.2,2.6,141.6,0.26,21.8,28.7,"12:58:24",1
"19/07/16","13:10",0.0,31.0,57.1,1005.5,159.9,1.2,2.7,211.8,0.59,21.6,28.9,"13:04:56",1
"19/07/16","13:20",0.0,30.7,59.4,1005.5,358.7,0.7,2.1,4.3,0.38,21.9,29.0,"13:13:04",1
"19/07/16","13:30",0.0,31.5,56.6,1005.5,35.7,1.2,3.2,349.5,0.62,21.9,28.7,"13:22:40",1
"19/07/16","13:40",0.0,30.6,57.9,1005.7,19.1,1.2,2.9,357.6,0.42,21.4,28.8,"13:32:08",1
"19/07/16","13:50",0.0,31.2,57.8,1005.2,65.5,1.2,2.2,343.0,0.51,21.9,28.8,"13:42:16",1
"19/07/16","14:00",0.0,31.5,55.7,1005.7,47.4,1.0,2.7,0.5,0.56,21.6,28.9,"13:50:32",1
"19/07/16","14:10",0.0,30.9,61.8,1005.7,135.2,0.7,1.8,139.2,0.27,22.8,28.8,"14:04:56",1
"19/07/16","14:20",0.0,31.2,58.8,1005.5,106.9,1.0,2.6,118.6,0.33,22.2,28.8,"14:14:24",1
"19/07/16","14:30",0.0,31.1,57.5,1005.2,83.7,1.0,1.9,62.8,0.30,21.8,28.9,"14:27:52",1
"19/07/16","14:40",0.0,30.9,57.2,1005.0,66.9,0.8,2.1,18.7,0.21,21.5,29.0,"14:32:56",1
"19/07/16","14:50",0.0,30.9,58.0,1004.8,24.7,1.1,2.2,350.3,0.17,21.7,28.8,"14:40:40",1
"19/07/16","15:00",0.0,30.8,55.8,1004.5,50.1,1.0,2.0,70.6,0.18,21.0,28.9,"14:52:48",1
"19/07/16","15:10",0.0,31.6,55.0,1004.5,120.1,1.0,2.7,116.1,0.45,21.5,28.9,"15:05:20",1
"19/07/16","15:20",0.0,31.8,55.8,1004.8,140.8,1.2,2.6,208.8,0.42,21.9,28.9,"15:19:36",1
"19/07/16","15:30",0.0,30.7,59.2,1004.5,141.4,1.7,3.6,115.4,0.14,21.9,28.9,"15:29:12",1
"19/07/16","15:40",0.0,30.7,59.4,1004.1,113.0,1.5,3.6,110.0,0.14,21.9,29.0,"15:32:32",1
"19/07/16","15:50",0.0,31.1,58.7,1004.1,109.1,1.5,3.4,117.1,0.21,22.1,29.0,"15:40:48",1
"19/07/16","16:00",0.0,31.2,54.9,1004.1,136.3,1.2,2.9,183.9,0.29,21.1,28.9,"15:55:52",1
"19/07/16","16:10",0.0,30.3,58.8,1004.3,144.4,1.8,2.7,160.3,0.21,21.4,28.9,"16:01:44",1
"19/07/16","16:20",0.0,30.5,57.7,1004.1,112.8,1.6,3.7,109.4,0.18,21.3,28.8,"16:15:44",1
"19/07/16","16:30",0.0,30.5,59.0,1003.6,134.0,1.5,2.7,120.0,0.19,21.6,28.7,"16:21:28",1
"19/07/16","16:40",0.0,31.3,57.1,1003.8,118.1,1.7,4.0,117.6,0.33,21.8,29.0,"16:31:28",1
"19/07/16","16:50",0.0,31.4,54.6,1003.6,111.5,1.5,3.5,119.7,0.32,21.2,28.8,"16:42:08",1
"19/07/16","17:00",0.0,30.7,57.4,1004.1,113.3,1.7,3.3,117.4,0.18,21.4,28.9,"16:54:32",1
"19/07/16","17:10",0.0,30.7,57.4,1004.1,104.6,1.3,3.1,120.6,0.11,21.4,28.7,"17:04:48",1
"19/07/16","17:20",0.0,30.4,58.5,1003.8,129.5,1.1,2.0,128.7,0.08,21.4,28.8,"17:11:28",1
"19/07/16","17:30",0.0,30.3,60.0,1003.4,118.3,1.7,3.2,110.4,0.06,21.7,28.5,"17:23:52",1
"19/07/16","17:40",0.0,30.1,62.3,1003.4,118.9,1.8,3.3,103.8,0.07,22.1,28.6,"17:30:32",1
"19/07/16","17:50",0.0,29.8,63.3,1003.4,146.8,1.6,4.7,133.4,0.05,22.1,28.5,"17:49:52",1
"19/07/16","18:00",0.0,29.2,65.3,1003.1,172.9,2.2,4.7,159.3,0.01,22.1,28.5,"17:59:28",1
"19/07/16","18:10",2.8,26.0,73.5,1002.6,183.8,3.9,7.3,185.2,0.00,20.9,28.1,"18:02:56",1
"19/07/16","18:20",1.2,25.0,81.5,1003.4,152.2,2.2,4.2,189.8,0.02,21.7,27.7,"18:13:44",1
"19/07/16","18:30",0.2,24.7,83.1,1003.6,65.6,0.8,1.9,102.5,0.03,21.7,27.3,"18:21:28",1
"19/07/16","18:40",0.0,24.7,84.9,1003.8,347.7,1.2,2.5,344.3,0.03,22.0,27.3,"18:36:08",1
"19/07/16","18:50",0.0,24.5,86.2,1003.6,322.5,1.5,2.8,303.1,0.04,22.1,27.1,"18:45:12",1
"19/07/16","19:00",0.0,24.5,86.9,1003.8,321.9,1.2,2.4,352.8,0.02,22.2,27.2,"18:59:20",1
"19/07/16","19:10",0.0,24.6,87.6,1004.1,323.2,1.1,2.2,340.4,0.01,22.4,26.9,"19:00:08",1
"19/07/16","19:20",0.0,24.4,87.6,1004.5,321.9,1.1,2.2,314.2,0.01,22.2,26.8,"19:12:00",1
"19/07/16","19:30",0.0,24.4,88.1,1004.3,311.9,1.1,2.1,330.1,0.00,22.3,26.6,"19:22:16",1
"19/07/16","19:40",0.0,24.4,88.6,1004.3,328.0,1.0,1.4,317.9,0.00,22.4,26.9,"19:31:36",1
"19/07/16","19:50",0.0,24.2,88.6,1004.8,320.5,1.3,1.8,324.8,0.00,22.2,26.6,"19:41:52",1
"19/07/16","20:00",0.0,24.1,89.1,1005.0,315.7,1.0,1.8,318.7,0.00,22.2,26.4,"19:50:32",1
"19/07/16","20:10",0.0,24.2,89.7,1004.8,357.8,1.0,1.7,316.6,0.00,22.4,26.3,"20:02:32",1
"19/07/16","20:20",0.0,24.1,89.8,1005.2,315.1,1.0,1.8,336.9,0.00,22.4,26.3,"20:18:48",1
"19/07/16","20:30",0.0,23.8,90.4,1005.2,320.8,1.3,1.7,323.0,0.00,22.2,26.1,"20:29:04",1
"19/07/16","20:40",0.0,23.6,90.9,1005.2,318.1,1.2,1.9,323.9,0.00,22.1,26.1,"20:31:12",1
"19/07/16","20:50",0.0,23.5,91.0,1005.2,335.8,1.2,2.2,338.9,0.00,22.0,26.2,"20:47:04",1
"19/07/16","21:00",0.0,23.3,91.5,1005.0,315.0,0.8,1.7,329.8,0.00,21.9,25.8,"20:50:16",1
"19/07/16","21:10",0.0,23.3,92.1,1005.7,321.3,1.1,1.9,327.7,0.00,22.0,26.0,"21:08:32",1
"19/07/16","21:20",0.0,23.3,92.2,1005.5,322.3,1.0,1.6,336.3,0.00,22.0,25.8,"21:11:04",1
"19/07/16","21:30",0.0,23.3,92.5,1005.0,323.3,0.8,1.4,327.7,0.00,22.1,25.6,"21:23:44",1
"19/07/16","21:40",0.0,23.5,92.7,1005.5,305.8,1.1,2.0,335.9,0.00,22.3,25.6,"21:38:32",1
"19/07/16","21:50",0.0,23.6,92.7,1005.7,331.3,1.5,2.1,345.9,0.00,22.4,25.5,"21:42:56",1
"19/07/16","22:00",0.0,23.6,92.8,1006.0,325.3,1.3,2.2,348.1,0.00,22.4,25.6,"21:58:24",1
"19/07/16","22:10",0.0,23.5,92.7,1006.0,331.0,1.0,1.6,337.8,0.00,22.3,25.4,"22:00:16",1
"19/07/16","22:20",0.0,23.6,92.8,1006.4,331.8,1.0,1.3,348.2,0.00,22.4,25.4,"22:12:56",1
"19/07/16","22:30",0.0,23.6,92.8,1006.4,318.6,1.0,1.4,327.6,0.00,22.4,25.5,"22:28:16",1
"19/07/16","22:40",0.0,23.6,93.0,1006.2,317.4,0.8,1.4,325.5,0.00,22.4,25.4,"22:30:08",1
"19/07/16","22:50",0.0,23.6,92.9,1006.9,277.9,0.7,1.1,279.1,0.00,22.4,25.3,"22:46:24",1
"19/07/16","23:00",0.0,23.7,93.1,1006.7,321.0,0.6,1.9,356.7,0.00,22.6,25.3,"22:50:02",1
"19/07/16","23:10",0.0,23.7,93.0,1006.7,339.1,1.2,2.0,353.8,0.00,22.5,25.2,"23:00:56",1
"19/07/16","23:20",0.0,23.7,93.2,1006.7,324.7,1.0,1.3,348.9,0.00,22.6,25.2,"23:18:00",1
"19/07/16","23:30",0.0,23.7,93.3,1006.7,328.9,0.8,1.6,321.6,0.00,22.6,25.1,"23:25:28",1
"19/07/16","23:40",0.0,23.7,93.5,1006.4,313.5,0.8,1.3,328.6,0.00,22.6,25.1,"23:36:32",1
"19/07/16","23:50",0.0,23.5,93.4,1006.4,306.2,1.0,1.2,315.7,0.00,22.4,25.1,"23:43:28",1
"19/07/16","24:00",0.0,23.6,93.8,1006.2,325.1,1.1,1.7,334.7,0.00,22.6,25.2,"23:58:32",1
